#timestamp,LO_Frequency,Hit 
1505905215.8,286046997.8,N
1505905235.6,286046994.9,N
1505905255.4,286046996.2,N
1505905275.3,286046996.0,N
1505905295.1,286046990.8,N
1505905315.8,286046993.0,N
1505905335.7,286046994.5,N
1505905355.5,286046991.2,N
1505905375.3,286046990.5,N
1505905395.2,286046990.1,N
1505905415.9,286046991.7,N
1505905435.7,286046992.7,N
1505905455.6,286046992.7,N
1505905475.4,286046989.8,N
1505905495.2,286046988.6,P
1505905515.1,286046993.8,N
1505905516.0,286046993.8,N
1505905535.8,286046992.7,P
1505905555.6,286047002.2,P
1505905575.5,286047004.2,N
1505905595.3,286047002.3,N
1505905615.1,286046994.9,N
1505905635.9,286046999.7,N
1505905655.7,286047005.8,N
1505905675.5,286047007.2,N
1505905695.4,286047007.2,N
1505905715.2,286047007.0,N
1505905735.0,286047003.3,N
1505905735.9,286047003.3,N
1505905755.8,286047003.4,N
1505905775.6,286047005.7,N
1505905795.4,286047007.6,N
1505905815.2,286047004.9,N
1505905835.1,286047004.8,N
1505905836.0,286047004.8,N
1505905855.8,286047004.7,N
1505905875.6,286047007.0,N
1505905895.5,286047006.5,N
1505905915.3,286047009.1,N
1505905935.1,286047007.2,N
1505905955.9,286047005.6,N
1505905975.7,286047005.4,N
1505905995.5,286047001.1,N
1505906015.4,286046998.5,N
1505906035.2,286046998.0,N
1505906055.0,286046997.3,N
1505906055.9,286046997.3,N
1505906075.7,286046996.9,N
1505906095.6,286046999.7,N
1505906115.4,286047000.1,N
1505906135.2,286046998.6,N
1505906155.1,286046999.6,N
1505906156.0,286046999.6,N
1505906175.8,286046998.4,N
1505906195.6,286046995.2,N
1505906215.5,286046993.5,N
1505906235.3,286046993.8,N
1505906255.1,286046992.4,N
1505906275.9,286046991.8,N
1505906295.7,286046994.0,N
1505906315.5,286046998.4,N
1505906335.4,286046995.9,N
1505906355.2,286046996.2,N
1505906375.0,286046995.2,N
1505906375.9,286046995.2,N
1505906395.8,286046997.4,N
1505906415.6,286046996.5,N
1505906435.4,286046993.9,N
1505906455.2,286046995.0,N
1505906475.1,286047000.9,N
1505906476.0,286047000.9,N
1505906495.8,286046995.8,N
1505906515.6,286046997.2,N
1505906535.5,286046998.2,N
1505906555.3,286047003.9,N
1505906575.1,286046997.2,N
1505906595.9,286046998.0,N
1505906615.7,286047000.2,N
1505906635.5,286047002.3,N
1505906655.4,286047001.2,N
1505906675.2,286046996.5,N
1505906695.0,286046998.3,N
1505906695.9,286046998.3,N
1505906715.8,286046997.8,N
1505906735.6,286046993.7,N
1505906755.4,286046996.5,N
1505906775.3,286047000.5,N
1505906795.1,286046996.2,N
1505906796.0,286046996.2,N
1505906815.8,286046993.0,N
1505906835.7,286046991.0,P
1505906855.5,286046995.8,N
1505906875.3,286047001.1,N
1505906895.2,286046998.2,N
1505906915.9,286047002.8,N
1505906935.7,286047002.2,N
1505906955.5,286047002.8,N
1505906975.4,286046995.1,N
1505906995.2,286046994.5,N
1505907015.0,286046992.2,N
1505907015.9,286046992.2,N
1505907035.8,286046992.2,N
1505907055.6,286046996.2,N
1505907075.4,286046998.4,N
1505907095.3,286046998.9,N
1505907115.1,286046996.0,N
1505907135.8,286046995.5,N
1505907155.7,286047002.7,N
1505907175.5,286047002.8,N
1505907195.3,286046999.2,N
1505907215.2,286046999.0,N
1505907235.9,286046995.9,N
1505907255.7,286046995.1,N
1505907275.5,286046999.0,N
1505907295.4,286047000.1,N
1505907315.2,286046996.7,N
1505907335.0,286046998.7,N
1505907335.9,286046998.7,N
1505907355.8,286046998.7,N
1505907375.6,286047002.5,N
1505907395.4,286046998.7,N
1505907415.3,286046998.7,N
1505907435.1,286047000.7,N
1505907455.8,286046999.6,N
1505907475.7,286046996.0,N
1505907495.5,286046996.5,N
1505907515.3,286046998.7,N
1505907535.2,286046996.8,N
1505907555.9,286046999.6,N
1505907575.7,286046999.9,N
1505907595.6,286046998.1,N
1505907615.4,286046999.5,N
1505907635.2,286046996.7,N
1505907655.0,286046997.4,N
1505907656.0,286046997.4,N
1505907675.8,286046999.1,N
1505907695.6,286046998.2,N
1505907715.4,286047000.7,N
1505907735.3,286046998.4,N
1505907755.1,286047000.7,N
1505907775.8,286046998.3,N
1505907795.7,286047001.2,N
1505907815.5,286047002.4,N
1505907835.3,286047002.7,N
1505907855.2,286046999.1,N
1505907875.9,286046995.5,N
1505907895.7,286046995.9,N
1505907915.6,286046996.2,N
1505907935.4,286046993.9,P
1505907955.2,286046989.7,P
1505907975.1,286046988.4,P
1505907976.0,286046988.4,N
1505907995.8,286046984.0,P
1505908015.6,286046992.0,N
1505908035.5,286046990.2,N
1505908055.3,286046994.5,N
1505908075.1,286046995.6,N
1505908095.9,286047000.8,N
1505908115.7,286047000.6,N
1505908135.5,286046997.4,N
1505908155.4,286046996.9,N
1505908175.2,286046999.4,N
1505908195.0,286046994.1,N
1505908195.9,286046994.1,N
1505908215.8,286046991.9,N
1505908235.6,286046994.6,N
1505908255.4,286046995.5,N
1505908275.2,286046997.6,N
1505908295.1,286046998.3,N
1505908296.0,286046998.3,N
1505908315.8,286047000.0,N
1505908335.6,286047002.4,N
1505908355.5,286047002.3,N
1505908375.3,286047001.8,N
1505908395.1,286047004.2,N
1505908415.9,286047001.7,N
1505908435.7,286047000.2,N
1505908455.5,286046998.5,N
1505908475.4,286047000.0,N
1505908495.2,286046999.9,N
1505908515.0,286047002.6,N
1505908515.9,286047002.6,N
1505908535.8,286047000.6,N
1505908555.6,286047002.5,N
1505908575.4,286047001.9,N
1505908595.2,286047002.7,N
1505908615.1,286047002.6,N
1505908616.0,286047002.6,N
1505908635.8,286047002.0,N
1505908655.6,286047002.6,N
1505908675.5,286047000.0,N
1505908695.3,286047000.1,N
1505908715.1,286046998.3,N
1505908735.9,286047001.1,N
1505908755.7,286047000.0,N
1505908775.5,286047002.4,N
1505908795.4,286047000.0,N
